Location: Владивосток
(43.1151°N, 131.8856°E)
Time: 00:08:56
(UTC+10:00)

CUBEBUG 2 - Visible Passes

Search period start: 03 July 2022 00:00
Search period end: 13 July 2022 00:00
Orbit: 582 x 695 km, 97.7° (Epoch: 01 July)

Date Brightness Start Highest point End Pass type
(mag) Time Alt. Az. Time Alt. Az. Time Alt. Az.
03 Jul ? 03:19:19 10° NE 03:22:32 21° E 03:25:48 10° SE visible
03 Jul ? 04:55:18 10° N 04:59:07 34° WNW 05:03:00 10° SW visible
04 Jul ? 03:41:45 10° NNE 03:45:41 36° E 03:49:25 11° SSE visible
05 Jul ? 04:04:32 10° NNE 04:08:45 66° ESE 04:12:40 12° S visible
06 Jul ? 02:53:44 10° ENE 02:54:51 11° E 02:55:58 10° ESE visible
06 Jul ? 04:27:32 10° N 04:31:46 69° WNW 04:35:55 11° SSW visible
07 Jul ? 03:14:57 10° NE 03:18:04 19° E 03:21:14 10° SE visible
07 Jul ? 04:50:45 10° N 04:54:42 38° WNW 04:58:45 10° SW visible
08 Jul ? 03:37:20 10° NNE 03:41:13 33° E 03:44:52 12° SSE visible
09 Jul ? 04:00:03 10° NNE 04:04:18 60° E 04:08:06 13° S visible
10 Jul ? 04:23:01 10° N 04:27:19 76° WNW 04:31:21 12° SSW visible
11 Jul ? 03:10:36 10° NE 03:13:36 18° E 03:16:38 10° SE visible
11 Jul ? 04:46:11 10° N 04:50:16 43° WNW 04:54:27 10° SW visible
12 Jul ? 03:32:53 10° NNE 03:36:46 31° E 03:40:17 12° SSE visible
